カタログに戻る

STARLINK-4661

運用中通信VLEO
NORAD 53732·PAYLOAD·🇺🇸 United States

打ち上げ Sep 5, 2022 から Cape Canaveral Space Force Station

Loading…

次のパス (今後24時間)

TLE

最新Source: CelesTrak SupGP

元期: Sep 14, 2026, 21:56 UTC

1 53732C 22107AJ  26257.91437500  .00003543  00000+0  10472-3 0  2571
2 53732  53.1582 109.9235 0001289  83.2421 191.8018 15.34376120    16

AllMySatでSTARLINK-4661をリアルタイム追跡

Download on the App Store